| time (UTC) | temp C | wind direction | speed KPH | gust KPH | rain 1hr cm | rain 24hr cm | rain mn cm | humidity % | barometer mb |
| 20260506114850 | 25 | 60 | 4.8 | 0.0 | 0.00 | 0.00 | 0.00 | 24 | 1014.0 |
| 20260506113351 | 25 | 60 | 4.8 | 0.0 | 0.00 | 0.00 | 0.00 | 24 | 1014.0 |
| 20260506111850 | 23 | 30 | 8.0 | 0.0 | 0.00 | 0.00 | 0.00 | 31 | 1014.0 |
| 20260506110350 | 23 | 30 | 8.0 | 0.0 | 0.00 | 0.00 | 0.00 | 31 | 1014.0 |
| 20260506104850 | 23 | 20 | 8.0 | 0.0 | 0.00 | 0.00 | 0.00 | 29 | 1014.0 |
| 20260506103351 | 23 | 20 | 8.0 | 0.0 | 0.00 | 0.00 | 0.00 | 29 | 1014.0 |
| 20260506101851 | 22 | 4.8 | 0.0 | 0.00 | 0.00 | 0.00 | 33 | 1014.0 | |
| 20260506100350 | 22 | 4.8 | 0.0 | 0.00 | 0.00 | 0.00 | 33 | 1014.0 | |
| 20260506094851 | 22 | 0 | 0.0 | 0.0 | 0.00 | 0.00 | 0.00 | 36 | 1015.0 |
| 20260506093350 | 22 | 0 | 0.0 | 0.0 | 0.00 | 0.00 | 0.00 | 36 | 1015.0 |
| 20260506091850 | 21 | 4.8 | 0.0 | 0.00 | 0.00 | 0.00 | 40 | 1015.0 | |
| 20260506090350 | 21 | 4.8 | 0.0 | 0.00 | 0.00 | 0.00 | 40 | 1015.0 | |
| 20260506084851 | 20 | 3.2 | 0.0 | 0.00 | 0.00 | 0.00 | 49 | 1015.0 | |
| 20260506083350 | 20 | 3.2 | 0.0 | 0.00 | 0.00 | 0.00 | 49 | 1015.0 | |
| 20260506081847 | 18 | 3.2 | 0.0 | 0.00 | 0.00 | 0.00 | 46 | 1015.0 | |
| 20260506080350 | 18 | 3.2 | 0.0 | 0.00 | 0.00 | 0.00 | 46 | 1015.0 | |
| 20260506073351 | 17 | 90 | 3.2 | 0.0 | 0.00 | 0.00 | 0.00 | 56 | 1015.0 |
| 20260506071850 | 16 | 3.2 | 0.0 | 0.00 | 0.00 | 0.00 | 59 | 1015.0 | |
| 20260506070350 | 16 | 3.2 | 0.0 | 0.00 | 0.00 | 0.00 | 59 | 1015.0 | |
| 20260506061851 | 13 | 100 | 4.8 | 0.0 | 0.00 | 0.00 | 0.00 | 67 | 1015.0 |
| 20260506060352 | 13 | 100 | 4.8 | 0.0 | 0.00 | 0.00 | 0.00 | 67 | 1015.0 |
| 20260506050404 | 11 | 0 | 0.0 | 0.0 | 0.00 | 0.00 | 0.00 | 77 | 1015.0 |
| 20260506044906 | 8 | 0 | 0.0 | 0.0 | 0.00 | 0.00 | 0.00 | 82 | 1015.0 |
| 20260506043354 | 8 | 0 | 0.0 | 0.0 | 0.00 | 0.00 | 0.00 | 82 | 1015.0 |
| 20260506041851 | 7 | 250 | 3.2 | 0.0 | 0.00 | 0.00 | 0.00 | 87 | 1015.0 |
| 20260506040350 | 7 | 250 | 3.2 | 0.0 | 0.00 | 0.00 | 0.00 | 87 | 1015.0 |
| 20260506034851 | 6 | 0 | 0.0 | 0.0 | 0.00 | 0.00 | 0.00 | 93 | 1015.0 |
| 20260506033350 | 6 | 0 | 0.0 | 0.0 | 0.00 | 0.00 | 0.00 | 93 | 1015.0 |
| 20260506031850 | 7 | 3.2 | 0.0 | 0.00 | 0.00 | 0.00 | 87 | 1015.0 | |
| 20260506030350 | 7 | 3.2 | 0.0 | 0.00 | 0.00 | 0.00 | 87 | 1015.0 | |
| 20260506024850 | 6 | 190 | 9.7 | 0.0 | 0.00 | 0.00 | 0.00 | 87 | 1015.0 |
| 20260506023350 | 6 | 190 | 9.7 | 0.0 | 0.00 | 0.00 | 0.00 | 87 | 1015.0 |
| 20260506021847 | 6 | 210 | 9.7 | 0.0 | 0.00 | 0.00 | 0.00 | 93 | 1014.0 |
| 20260506020350 | 6 | 210 | 9.7 | 0.0 | 0.00 | 0.00 | 0.00 | 93 | 1014.0 |
| 20260506014850 | 6 | 210 | 9.7 | 0.0 | 0.00 | 0.00 | 0.00 | 87 | 1014.0 |
| 20260506013350 | 6 | 210 | 9.7 | 0.0 | 0.00 | 0.00 | 0.00 | 87 | 1014.0 |
| 20260506011851 | 7 | 3.2 | 0.0 | 0.00 | 0.00 | 0.00 | 87 | 1015.0 | |
| 20260506010350 | 7 | 3.2 | 0.0 | 0.00 | 0.00 | 0.00 | 87 | 1015.0 | |
| 20260506004847 | 7 | 3.2 | 0.0 | 0.00 | 0.00 | 0.00 | 82 | 1014.0 | |
| 20260506003513 | 7 | 3.2 | 0.0 | 0.00 | 0.00 | 0.00 | 82 | 1014.0 | |
| 20260506001851 | 8 | 0 | 0.0 | 0.0 | 0.00 | 0.00 | 0.00 | 82 | 1014.0 |
| 20260506000351 | 8 | 0 | 0.0 | 0.0 | 0.00 | 0.00 | 0.00 | 82 | 1014.0 |
| 20260505234850 | 11 | 3.2 | 0.0 | 0.00 | 0.00 | 0.00 | 72 | 1014.0 | |
| 20260505233350 | 11 | 3.2 | 0.0 | 0.00 | 0.00 | 0.00 | 72 | 1014.0 | |
| 20260505231850 | 12 | 90 | 8.0 | 0.0 | 0.00 | 0.00 | 0.00 | 67 | 1014.0 |
| 20260505230351 | 12 | 90 | 8.0 | 0.0 | 0.00 | 0.00 | 0.00 | 67 | 1014.0 |
| 20260505224851 | 12 | 110 | 1.6 | 0.0 | 0.00 | 0.00 | 0.00 | 63 | 1014.0 |
| 20260505223350 | 12 | 110 | 1.6 | 0.0 | 0.00 | 0.00 | 0.00 | 63 | 1014.0 |
| 20260505221848 | 13 | 130 | 8.0 | 0.0 | 0.00 | 0.00 | 0.00 | 59 | 1014.0 |
| 20260505220351 | 13 | 130 | 8.0 | 0.0 | 0.00 | 0.00 | 0.00 | 59 | 1014.0 |
| 20260505214851 | 12 | 140 | 4.8 | 0.0 | 0.00 | 0.00 | 0.00 | 63 | 1014.0 |
| 20260505213351 | 12 | 140 | 4.8 | 0.0 | 0.00 | 0.00 | 0.00 | 63 | 1014.0 |
| 20260505211850 | 13 | 210 | 16.1 | 0.0 | 0.00 | 0.00 | 0.00 | 63 | 1014.0 |
| 20260505210351 | 13 | 210 | 16.1 | 0.0 | 0.00 | 0.00 | 0.00 | 63 | 1014.0 |
| 20260505204852 | 13 | 220 | 24.1 | 0.0 | 0.00 | 0.00 | 0.00 | 63 | 1014.0 |
| 20260505203350 | 13 | 220 | 24.1 | 0.0 | 0.00 | 0.00 | 0.00 | 63 | 1014.0 |
| 20260505201921 | 15 | 230 | 20.9 | 0.0 | 0.00 | 0.00 | 0.00 | 59 | 1014.0 |
| 20260505200351 | 15 | 230 | 20.9 | 0.0 | 0.00 | 0.00 | 0.00 | 59 | 1014.0 |
| 20260505194850 | 17 | 220 | 24.1 | 0.0 | 0.00 | 0.00 | 0.00 | 52 | 1014.0 |
| 20260505193350 | 17 | 220 | 24.1 | 0.0 | 0.00 | 0.00 | 0.00 | 52 | 1014.0 |
| 20260505191850 | 17 | 220 | 24.1 | 0.0 | 0.00 | 0.00 | 0.00 | 52 | 1014.0 |
| 20260505190350 | 17 | 220 | 24.1 | 0.0 | 0.00 | 0.00 | 0.00 | 52 | 1014.0 |
| 20260505184851 | 17 | 220 | 24.1 | 0.0 | 0.00 | 0.00 | 0.00 | 52 | 1014.0 |
| 20260505183351 | 17 | 220 | 24.1 | 0.0 | 0.00 | 0.00 | 0.00 | 52 | 1014.0 |
| 20260505180351 | 16 | 150 | 9.7 | 0.0 | 0.00 | 0.00 | 0.00 | 55 | 1013.0 |
| 20260505174845 | 21 | 20 | 9.7 | 0.0 | 0.00 | 0.00 | 0.00 | 33 | 1013.0 |
| 20260505173350 | 21 | 20 | 9.7 | 0.0 | 0.00 | 0.00 | 0.00 | 33 | 1013.0 |
| 20260505171850 | 22 | 330 | 3.2 | 0.0 | 0.00 | 0.00 | 0.00 | 33 | 1013.0 |
| 20260505170351 | 22 | 330 | 3.2 | 0.0 | 0.00 | 0.00 | 0.00 | 33 | 1013.0 |
| 20260505164850 | 22 | 310 | 4.8 | 0.0 | 0.00 | 0.00 | 0.00 | 33 | 1013.0 |
| 20260505163351 | 22 | 310 | 4.8 | 0.0 | 0.00 | 0.00 | 0.00 | 33 | 1013.0 |
| 20260505161851 | 23 | 3.2 | 0.0 | 0.00 | 0.00 | 0.00 | 36 | 1013.0 | |
| 20260505160351 | 23 | 3.2 | 0.0 | 0.00 | 0.00 | 0.00 | 36 | 1013.0 | |
| 20260505153351 | 22 | 190 | 8.0 | 0.0 | 0.00 | 0.00 | 0.00 | 27 | 1013.0 |
| 20260505151859 | 23 | 4.8 | 0.0 | 0.00 | 0.00 | 0.00 | 25 | 1013.0 | |
| 20260505150351 | 23 | 4.8 | 0.0 | 0.00 | 0.00 | 0.00 | 25 | 1013.0 | |
| 20260505140350 | 23 | 120 | 1.6 | 0.0 | 0.00 | 0.00 | 0.00 | 22 | 1014.0 |
| 20260505124851 | 23 | 70 | 11.3 | 0.0 | 0.00 | 0.00 | 0.00 | 25 | 1015.0 |
| 20260505123350 | 23 | 70 | 11.3 | 0.0 | 0.00 | 0.00 | 0.00 | 25 | 1015.0 |
| 20260505121850 | 23 | 4.8 | 0.0 | 0.00 | 0.00 | 0.00 | 27 | 1015.0 | |
| 20260505120402 | 23 | 8.0 | 0.0 | 0.00 | 0.00 | 0.00 | 25 | 1015.0 |